Погода в Еткуле

Россия / Челябинская область     54°49′22″N   61°35′00″E
темп.,
°C
ветер,
м/с
пор.,
м/с
влажн.,
%
обл.,
%
осадки,
мм/ч
давл.,
гПа
погр.,
м
26 февраля, пт
пт2623:00−25зюз11943 0.0 103020
02:00−26ююз22940 0.0 102920
05:00−27ююз22880 0.0 103019
08:00−28ю23840 0.0 103019
11:00−24ю34940 0.0 1029205
14:00−21ю349361 0.0 1028310
17:00−22ююв359467 0.0 1028211
20:00−27ю449613 0.0 102856
27 февраля, сб
сб2723:00−28ю34966 0.0 102760
02:00−28ю449814 0.0 102680
05:00−28ю469934 0.0 102594
08:00−28ююв4710078 0.0 1023127
11:00−23ююв589790 0.1 1021302
14:00−19юв61095100 0.1 1018442
17:00−15юв51095100 0.8 1015545
20:00−11юв51195100 1.1 1013622
28 февраля, вс
вс2823:00−10юв51095100 1.5 1010408
02:00−10юв4895100 0.4 1008276
05:00−11юв3396100 0.7 100766
08:00−11вюв239799 0.1 100648
11:00−8в2394100 0.4 1005233
14:00−6всв2393100 0.7 1005309
17:00−6св3495100 1.3 1005280
20:00−8ссв3596100 0.4 1007113
1 марта, пн
пн123:00−10ссв359697 0.5 1009107
02:00−13ссв469798 0.1 1010125
05:00−14ссв479699 0.1 1012209
08:00−16ссв479694 0.1 1013202
11:00−15ссв459594 0.3 1015252
14:00−13ссв359399 0.1 1016316
17:00−13ссв349499 0.1 1017299
20:00−17ссв239794 0.1 101827
2 марта, вт
вт223:00−19с1110085 0.1 101920
02:00−19з119875 0.1 101820
05:00−20зюз229947 0.1 101820
08:00−20юз239933 0.0 101820
11:00−14юз249427 0.0 1016177
14:00−10ююз349378 0.0 1014303
17:00−11ю359589 0.0 1012193
20:00−15ююз449774 0.0 101257